User: anonymous   Login
Location: Poughquag
(41.6090°N, 73.6820°W)
Time: 18:37:41
(UTC-04:00)
Language:

Courier 1B - Orbit

View from above orbital plane
View from above orbital plane
View from above satellite
View from above satellite

Ground track
Ground track

The orbit data is extracted from the following two-line orbital elements,

1    58U 60013A   20090.15954661 +.00000090 +00000-0 +67497-5 0  9998
2    58 028.3262 136.9059 0165048 132.7559 228.7001 13.46321443927927
Epoch (UTC): 30 March 2020 03:49:44
Eccentricity: 0.0165048
inclination: 28.3262°
perigee height: 962 km
apogee height: 1209 km
right ascension of ascending node: 136.9059°
argument of perigee: 132.7559°
revolutions per day: 13.46321443
mean anomaly at epoch: 228.7001°
orbit number at epoch: 92792

The dashed part of the orbit path shows where the satellite is in the earth's shadow,  

DLR